Total_Precipitation_Accumulation
0.00 0.00 0.01 0.00 0.00 0.00 0.00 0.00 0.00 0.00 0.00 0.00 0.00 0.00 0.00 0.00 0.00 0.00 0.00 0.00 0.00 0.01 0.01 0.01 0.01 0.01 0.01 0.01 0.01 0.01 0.00 0.00 0.01 0.01 0.01 0.03 0.04 0.05 0.04 0.03 0.08 0.12 0.04
0.00 0.00 0.01 0.00 0.00 0.00 0.00 0.00 0.00 0.00 0.00 0.00 0.00 0.00 0.00 0.00 0.00 0.00 0.00 0.00 0.00 0.01 0.01 0.01 0.00 0.00 0.00 0.00 0.00 0.00 0.00 0.00 0.01 0.01 0.01 0.03 0.06 0.07 0.03 0.01 0.06 0.09 0.03
0.00 0.00 0.00 0.00 0.00 0.00 0.00 0.00 0.00 0.00 0.00 0.00 0.00 0.00 0.00 0.00 0.00 0.00 0.00 0.01 0.01 0.01 0.01 0.01 0.00 0.00 0.00 0.00 0.00 0.00 0.00 0.00 0.01 0.01 0.02 0.03 0.02 0.04 0.04 0.01 0.01 0.02 0.02
0.00 0.00 0.00 0.00 0.00 0.00 0.00 0.00 0.00 0.00 0.00 0.01 0.00 0.00 0.00 0.00 0.00 0.00 0.01 0.01 0.01 0.01 0.01 0.00 0.00 0.00 0.00 0.00 0.00 0.00 0.00 0.00 0.01 0.01 0.04 0.14 0.04 0.02 0.02 0.01 0.02 0.01 0.01
0.00 0.00 0.00 0.00 0.00 0.00 0.00 0.00 0.00 0.01 0.01 0.01 0.00 0.00 0.00 0.00 0.01 0.01 0.01 0.01 0.01 0.01 0.01 0.00 0.00 0.00 0.00 0.00 0.00 0.00 0.00 0.00 0.01 0.01 0.03 0.13 0.12 0.06 0.04 0.01 0.01 0.01 0.01
0.00 0.00 0.00 0.00 0.00 0.00 0.00 0.00 0.01 0.01 0.01 0.01 0.01 0.00 0.00 0.01 0.01 0.01 0.01 0.01 0.01 0.01 0.00 0.00 0.00 0.00 0.00 0.00 0.00 0.01 0.01 0.00 0.01 0.01 0.02 0.07 0.15 0.14 0.13 0.09 0.03 0.01 0.00
0.00 0.00 0.00 0.01 0.00 0.00 0.00 0.00 0.00 0.00 0.01 0.01 0.00 0.00 0.01 0.01 0.01 0.01 0.01 0.01 0.01 0.01 0.00 0.00 0.00 0.00 0.00 0.00 0.00 0.01 0.01 0.01 0.02 0.05 0.05 0.08 0.18 0.22 0.40 0.43 0.26 0.13 0.04
0.00 0.00 0.00 0.01 0.01 0.01 0.01 0.00 0.00 0.01 0.00 0.00 0.00 0.00 0.00 0.01 0.01 0.01 0.01 0.01 0.01 0.01 0.00 0.00 0.00 0.00 0.00 0.01 0.01 0.03 0.06 0.05 0.04 0.08 0.11 0.14 0.19 0.24 0.60 0.73 0.57 0.41 0.27
0.00 0.00 0.01 0.01 0.01 0.01 0.01 0.01 0.01 0.01 0.01 0.01 0.00 0.00 0.00 0.01 0.01 0.01 0.01 0.02 0.02 0.03 0.01 0.01 0.00 0.01 0.01 0.02 0.05 0.10 0.12 0.09 0.06 0.09 0.07 0.12 0.15 0.25 0.65 0.73 0.57 0.48 0.37
0.00 0.00 0.01 0.01 0.01 0.02 0.02 0.02 0.01 0.01 0.02 0.01 0.01 0.01 0.01 0.01 0.01 0.01 0.01 0.01 0.02 0.02 0.02 0.02 0.02 0.04 0.04 0.06 0.10 0.11 0.10 0.05 0.06 0.07 0.04 0.05 0.12 0.34 0.65 0.73 0.69 0.60 0.47
0.00 0.01 0.01 0.02 0.02 0.02 0.02 0.02 0.03 0.04 0.03 0.03 0.02 0.02 0.02 0.01 0.01 0.03 0.03 0.04 0.04 0.07 0.08 0.08 0.10 0.13 0.13 0.12 0.15 0.16 0.12 0.12 0.15 0.05 0.04 0.04 0.16 0.37 0.56 0.70 0.74 0.70 0.60
0.01 0.01 0.01 0.02 0.02 0.03 0.03 0.03 0.05 0.06 0.06 0.05 0.05 0.07 0.08 0.09 0.07 0.04 0.10 0.13 0.16 0.25 0.27 0.27 0.35 0.34 0.25 0.15 0.22 0.42 0.18 0.15 0.15 0.09 0.13 0.12 0.20 0.35 0.52 0.60 0.60 0.61 0.59
0.01 0.01 0.02 0.02 0.02 0.03 0.04 0.03 0.05 0.09 0.17 0.18 0.17 0.21 0.24 0.26 0.18 0.11 0.15 0.21 0.29 0.40 0.39 0.53 0.69 0.49 0.41 0.38 0.36 0.40 0.26 0.23 0.20 0.20 0.21 0.26 0.36 0.49 0.57 0.53 0.54 0.59 0.60
0.05 0.06 0.06 0.06 0.05 0.05 0.04 0.05 0.06 0.10 0.16 0.18 0.18 0.22 0.34 0.29 0.28 0.26 0.24 0.23 0.30 0.40 0.57 0.66 0.71 0.74 0.75 0.62 0.52 0.46 0.44 0.43 0.36 0.36 0.37 0.41 0.55 0.64 0.69 0.59 0.52 0.54 0.57
0.13 0.20 0.22 0.19 0.15 0.11 0.10 0.10 0.10 0.12 0.14 0.15 0.24 0.30 0.38 0.42 0.46 0.53 0.46 0.43 0.38 0.53 0.73 0.91 0.86 0.90 0.99 0.88 0.71 0.61 0.56 0.52 0.47 0.42 0.39 0.45 0.48 0.53 0.62 0.63 0.58 0.54 0.52
0.22 0.35 0.41 0.42 0.41 0.39 0.35 0.28 0.25 0.24 0.24 0.30 0.43 0.52 0.75 0.82 0.82 0.82 0.74 0.68 0.54 0.65 0.85 0.97 0.94 1.00 0.95 0.95 0.73 0.64 0.56 0.55 0.49 0.45 0.44 0.41 0.42 0.41 0.43 0.51 0.55 0.59 0.58
0.41 0.54 0.66 0.73 0.83 0.94 0.90 0.76 0.65 0.53 0.56 0.67 0.85 1.04 1.25 1.35 1.34 1.32 1.13 0.87 0.80 0.99 1.07 1.00 0.93 1.09 0.89 0.81 0.69 0.74 0.68 0.61 0.49 0.41 0.38 0.34 0.30 0.31 0.31 0.35 0.46 0.55 0.65
0.72 0.90 1.07 1.23 1.44 1.57 1.44 1.24 1.19 1.15 1.21 1.18 1.25 1.41 1.46 1.50 1.51 1.59 1.26 0.95 1.08 1.24 1.17 1.06 1.05 1.13 1.00 0.99 0.90 0.82 0.67 0.55 0.36 0.28 0.24 0.20 0.22 0.18 0.21 0.33 0.40 0.47 0.69
1.27 1.49 1.72 2.02 2.17 2.04 1.84 1.68 1.62 1.56 1.45 1.28 1.13 1.12 1.09 1.07 1.10 1.11 0.77 0.65 0.85 0.92 0.79 0.76 0.92 0.96 0.92 1.00 0.95 0.71 0.52 0.36 0.25 0.18 0.15 0.10 0.13 0.14 0.15 0.26 0.30 0.40 0.66
1.69 2.19 2.62 2.68 2.36 2.06 1.80 1.60 1.51 1.37 1.26 1.13 0.95 0.86 0.76 0.73 0.75 0.75 0.52 0.46 0.68 0.70 0.59 0.68 0.73 0.70 0.60 0.65 0.58 0.34 0.28 0.21 0.18 0.14 0.10 0.08 0.10 0.10 0.12 0.17 0.21 0.25 0.48
2.28 2.95 3.16 2.76 2.33 1.93 1.64 1.39 1.15 0.95 0.89 0.84 0.70 0.66 0.66 0.67 0.68 0.73 0.54 0.50 0.59 0.57 0.48 0.48 0.51 0.43 0.30 0.46 0.49 0.25 0.12 0.08 0.09 0.08 0.06 0.05 0.05 0.06 0.10 0.15 0.21 0.25 0.24
2.23 2.68 2.67 2.22 1.77 1.30 1.01 0.92 0.81 0.69 0.60 0.50 0.47 0.50 0.47 0.53 0.59 0.64 0.52 0.39 0.40 0.38 0.29 0.27 0.35 0.35 0.29 0.42 0.46 0.34 0.14 0.08 0.05 0.04 0.04 0.04 0.04 0.08 0.11 0.14 0.22 0.31 0.33
2.04 1.94 1.78 1.35 0.87 0.64 0.49 0.47 0.42 0.40 0.40 0.32 0.28 0.31 0.31 0.34 0.37 0.41 0.38 0.33 0.34 0.38 0.33 0.31 0.34 0.36 0.28 0.26 0.34 0.37 0.23 0.09 0.06 0.06 0.09 0.08 0.10 0.16 0.21 0.24 0.28 0.30 0.38
1.51 1.17 0.88 0.68 0.44 0.31 0.29 0.32 0.32 0.29 0.30 0.25 0.23 0.24 0.23 0.24 0.26 0.28 0.27 0.24 0.25 0.29 0.30 0.24 0.24 0.26 0.25 0.18 0.20 0.25 0.26 0.22 0.18 0.10 0.10 0.13 0.17 0.24 0.32 0.39 0.45 0.42 0.42
0.83 0.67 0.53 0.45 0.34 0.34 0.34 0.37 0.38 0.28 0.23 0.21 0.20 0.20 0.20 0.23 0.26 0.26 0.25 0.23 0.22 0.22 0.22 0.19 0.18 0.18 0.17 0.14 0.13 0.18 0.28 0.34 0.35 0.27 0.15 0.15 0.17 0.19 0.29 0.39 0.50 0.53 0.48
0.34 0.35 0.36 0.40 0.44 0.41 0.34 0.31 0.31 0.27 0.22 0.20 0.17 0.18 0.19 0.22 0.26 0.28 0.30 0.29 0.30 0.27 0.25 0.23 0.21 0.18 0.17 0.16 0.17 0.19 0.25 0.32 0.36 0.39 0.32 0.24 0.23 0.24 0.29 0.41 0.64 0.75 0.68